#Datum;Uhrzeit;WR;Pac;DaySum;Status;WR;Pac;DaySum;Status;Pdc1;Udc;Temp;WR;Pac;DaySum;Status;Pdc1;Udc;Temp;WR;Pac;DaySum;Status;Pdc1;Udc;Temp;WR;Pac;DaySum;Status;Pdc1;Pdc2;Udc1;Udc2;Temp;WR;Pac;DaySum;Status;Pdc1;Pdc2;Udc1;Udc2;Temp;WR;Pac;DaySum;Status;Pdc1;Udc;Temp;WR;Pac;DaySum;Status;Pdc1;Udc;Temp;WR;Pac;DaySum;Status;Pdc1;Udc;Temp
02.01.20;23:55:00;1;395;11857;0;2;0;13032;0;0;0;0;3;0;8833;0;0;0;0;4;0;9317;0;0;0;0;5;0;34439;0;0;0;0;0;0;6;0;26195;0;0;0;0;0;0;7;0;25379;0;0;0;0;8;0;24786;0;0;0;0;9;0;13295;0;0;0;0
02.01.20;23:50:00;1;463;11804;0;2;0;13032;0;0;0;0;3;0;8833;0;0;0;0;4;0;9317;0;0;0;0;5;0;34439;0;0;0;0;0;0;6;0;26195;0;0;0;0;0;0;7;0;25379;0;0;0;0;8;0;24786;0;0;0;0;9;0;13295;0;0;0;0
02.01.20;23:45:00;1;436;11766;0;2;0;13032;0;0;0;0;3;0;8833;0;0;0;0;4;0;9317;0;0;0;0;5;0;34439;0;0;0;0;0;0;6;0;26195;0;0;0;0;0;0;7;0;25379;0;0;0;0;8;0;24786;0;0;0;0;9;0;13295;0;0;0;0
02.01.20;23:40:00;1;482;11728;0;2;0;13032;0;0;0;0;3;0;8833;0;0;0;0;4;0;9317;0;0;0;0;5;0;34439;0;0;0;0;0;0;6;0;26195;0;0;0;0;0;0;7;0;25379;0;0;0;0;8;0;24786;0;0;0;0;9;0;13295;0;0;0;0
02.01.20;23:35:00;1;478;11688;0;2;0;13032;0;0;0;0;3;0;8833;0;0;0;0;4;0;9317;0;0;0;0;5;0;34439;0;0;0;0;0;0;6;0;26195;0;0;0;0;0;0;7;0;25379;0;0;0;0;8;0;24786;0;0;0;0;9;0;13295;0;0;0;0
02.01.20;23:30:00;1;1110;11633;0;2;0;13032;0;0;0;0;3;0;8833;0;0;0;0;4;0;9317;0;0;0;0;5;0;34439;0;0;0;0;0;0;6;0;26195;0;0;0;0;0;0;7;0;25379;0;0;0;0;8;0;24786;0;0;0;0;9;0;13295;0;0;0;0
02.01.20;23:25:00;1;541;11583;0;2;0;13032;0;0;0;0;3;0;8833;0;0;0;0;4;0;9317;0;0;0;0;5;0;34439;0;0;0;0;0;0;6;0;26195;0;0;0;0;0;0;7;0;25379;0;0;0;0;8;0;24786;0;0;0;0;9;0;13295;0;0;0;0
02.01.20;23:20:00;1;514;11538;0;2;0;13032;0;0;0;0;3;0;8833;0;0;0;0;4;0;9317;0;0;0;0;5;0;34439;0;0;0;0;0;0;6;0;26195;0;0;0;0;0;0;7;0;25379;0;0;0;0;8;0;24786;0;0;0;0;9;0;13295;0;0;0;0
02.01.20;23:15:00;1;515;11495;0;2;0;13032;0;0;0;0;3;0;8833;0;0;0;0;4;0;9317;0;0;0;0;5;0;34439;0;0;0;0;0;0;6;0;26195;0;0;0;0;0;0;7;0;25379;0;0;0;0;8;0;24786;0;0;0;0;9;0;13295;0;0;0;0
02.01.20;23:10:00;1;1103;11450;0;2;0;13032;0;0;0;0;3;0;8833;0;0;0;0;4;0;9317;0;0;0;0;5;0;34439;0;0;0;0;0;0;6;0;26195;0;0;0;0;0;0;7;0;25379;0;0;0;0;8;0;24786;0;0;0;0;9;0;13295;0;0;0;0
02.01.20;23:05:00;1;558;11390;0;2;0;13032;0;0;0;0;3;0;8833;0;0;0;0;4;0;9317;0;0;0;0;5;0;34439;0;0;0;0;0;0;6;0;26195;0;0;0;0;0;0;7;0;25379;0;0;0;0;8;0;24786;0;0;0;0;9;0;13295;0;0;0;0
02.01.20;23:00:00;1;516;11343;0;2;0;13032;0;0;0;0;3;0;8833;0;0;0;0;4;0;9317;0;0;0;0;5;0;34439;0;0;0;0;0;0;6;0;26195;0;0;0;0;0;0;7;0;25379;0;0;0;0;8;0;24786;0;0;0;0;9;0;13295;0;0;0;0
02.01.20;22:55:00;1;512;11300;0;2;0;13032;0;0;0;0;3;0;8833;0;0;0;0;4;0;9317;0;0;0;0;5;0;34439;2;0;0;0;0;0;6;0;26195;2;0;0;0;0;0;7;0;25379;0;0;0;0;8;0;24786;0;0;0;0;9;0;13295;0;0;0;0
02.01.20;22:50:00;1;502;11259;0;2;0;13032;0;0;0;0;3;0;8833;0;0;0;0;4;0;9317;0;0;0;0;5;0;34439;2;0;0;0;0;0;6;0;26195;2;0;0;0;0;0;7;0;25379;0;0;0;0;8;0;24786;0;0;0;0;9;0;13295;0;0;0;0
02.01.20;22:45:00;1;516;11195;0;2;0;13032;0;0;0;0;3;0;8833;0;0;0;0;4;0;9317;0;0;0;0;5;0;34439;2;0;0;0;0;0;6;0;26195;2;0;0;0;0;0;7;0;25379;0;0;0;0;8;0;24786;0;0;0;0;9;0;13295;0;0;0;0
02.01.20;22:40:00;1;493;11154;0;2;0;13032;0;0;0;0;3;0;8833;0;0;0;0;4;0;9317;0;0;0;0;5;0;34439;2;0;0;0;0;0;6;0;26195;2;0;0;0;0;0;7;0;25379;0;0;0;0;8;0;24786;0;0;0;0;9;0;13295;0;0;0;0
02.01.20;22:35:00;1;477;11113;0;2;0;13032;0;0;0;0;3;0;8833;0;0;0;0;4;0;9317;0;0;0;0;5;0;34439;2;0;0;0;0;0;6;0;26195;2;0;0;0;0;0;7;0;25379;0;0;0;0;8;0;24786;0;0;0;0;9;0;13295;0;0;0;0
02.01.20;22:30:00;1;448;11073;0;2;0;13032;0;0;0;0;3;0;8833;0;0;0;0;4;0;9317;0;0;0;0;5;0;34439;2;0;0;0;0;0;6;0;26195;2;0;0;0;0;0;7;0;25379;0;0;0;0;8;0;24786;0;0;0;0;9;0;13295;0;0;0;0
02.01.20;22:25:00;1;528;11035;0;2;0;13032;0;0;0;0;3;0;8833;0;0;0;0;4;0;9317;0;0;0;0;5;0;34439;2;0;0;0;0;0;6;0;26195;2;0;0;0;0;0;7;0;25379;0;0;0;0;8;0;24786;0;0;0;0;9;0;13295;0;0;0;0
02.01.20;22:20:00;1;529;10970;0;2;0;13032;0;0;0;0;3;0;8833;0;0;0;0;4;0;9317;0;0;0;0;5;0;34439;2;0;0;0;0;0;6;0;26195;2;0;0;0;0;0;7;0;25379;0;0;0;0;8;0;24786;0;0;0;0;9;0;13295;0;0;0;0
02.01.20;22:15:00;1;661;10925;0;2;0;13032;0;0;0;0;3;0;8833;0;0;0;0;4;0;9317;0;0;0;0;5;0;34439;2;0;0;0;0;0;6;0;26195;2;0;0;0;0;0;7;0;25379;0;0;0;0;8;0;24786;0;0;0;0;9;0;13295;0;0;0;0
02.01.20;22:10:00;1;648;10870;0;2;0;13032;0;0;0;0;3;0;8833;0;0;0;0;4;0;9317;0;0;0;0;5;0;34439;2;0;0;0;0;0;6;0;26195;2;0;0;0;0;0;7;0;25379;0;0;0;0;8;0;24786;0;0;0;0;9;0;13295;0;0;0;0
02.01.20;22:05:00;1;671;10816;0;2;0;13032;0;0;0;0;3;0;8833;0;0;0;0;4;0;9317;0;0;0;0;5;0;34439;2;0;0;0;0;0;6;0;26195;2;0;0;0;0;0;7;0;25379;0;0;0;0;8;0;24786;0;0;0;0;9;0;13295;0;0;0;0
02.01.20;22:00:00;1;1271;10739;0;2;0;13032;0;0;0;0;3;0;8833;0;0;0;0;4;0;9317;0;0;0;0;5;0;34439;2;0;0;0;0;0;6;0;26195;2;0;0;0;0;0;7;0;25379;0;0;0;0;8;0;24786;0;0;0;0;9;0;13295;0;0;0;0
02.01.20;21:55:00;1;1093;10628;0;2;0;13032;0;0;0;0;3;0;8833;0;0;0;0;4;0;9317;0;0;0;0;5;0;34439;2;0;0;0;0;0;6;0;26195;2;0;0;0;0;0;7;0;25379;0;0;0;0;8;0;24786;0;0;0;0;9;0;13295;0;0;0;0
02.01.20;21:50:00;1;727;10545;0;2;0;13032;0;0;0;0;3;0;8833;0;0;0;0;4;0;9317;0;0;0;0;5;0;34439;2;0;0;0;0;0;6;0;26195;2;0;0;0;0;0;7;0;25379;0;0;0;0;8;0;24786;0;0;0;0;9;0;13295;0;0;0;0
02.01.20;21:45:00;1;637;10486;0;2;0;13032;0;0;0;0;3;0;8833;0;0;0;0;4;0;9317;0;0;0;0;5;0;34439;2;0;0;0;0;0;6;0;26195;2;0;0;0;0;0;7;0;25379;0;0;0;0;8;0;24786;0;0;0;0;9;0;13295;0;0;0;0
02.01.20;21:40:00;1;1195;10432;0;2;0;13032;0;0;0;0;3;0;8833;0;0;0;0;4;0;9317;0;0;0;0;5;0;34439;2;0;0;0;0;0;6;0;26195;2;0;0;0;0;0;7;0;25379;0;0;0;0;8;0;24786;0;0;0;0;9;0;13295;0;0;0;0
02.01.20;21:35:00;1;603;10362;0;2;0;13032;0;0;0;0;3;0;8833;0;0;0;0;4;0;9317;0;0;0;0;5;0;34439;2;0;0;0;0;0;6;0;26195;2;0;0;0;0;0;7;0;25379;0;0;0;0;8;0;24786;0;0;0;0;9;0;13295;0;0;0;0
02.01.20;21:30:00;1;603;10311;0;2;0;13032;0;0;0;0;3;0;8833;0;0;0;0;4;0;9317;0;0;0;0;5;0;34439;2;0;0;0;0;0;6;0;26195;2;0;0;0;0;0;7;0;25379;0;0;0;0;8;0;24786;0;0;0;0;9;0;13295;0;0;0;0
02.01.20;21:25:00;1;665;10260;0;2;0;13032;0;0;0;0;3;0;8833;0;0;0;0;4;0;9317;0;0;0;0;5;0;34439;2;0;0;0;0;0;6;0;26195;2;0;0;0;0;0;7;0;25379;0;0;0;0;8;0;24786;0;0;0;0;9;0;13295;0;0;0;0
02.01.20;21:20:00;1;746;10204;0;2;0;13032;0;0;0;0;3;0;8833;0;0;0;0;4;0;9317;0;0;0;0;5;0;34439;2;0;0;0;0;0;6;0;26195;2;0;0;0;0;0;7;0;25379;0;0;0;0;8;0;24786;0;0;0;0;9;0;13295;0;0;0;0
02.01.20;21:15:00;1;798;10141;0;2;0;13032;0;0;0;0;3;0;8833;0;0;0;0;4;0;9317;0;0;0;0;5;0;34439;2;0;0;0;0;0;6;0;26195;2;0;0;0;0;0;7;0;25379;0;0;0;0;8;0;24786;0;0;0;0;9;0;13295;0;0;0;0
02.01.20;21:10:00;1;830;10053;0;2;0;13032;0;0;0;0;3;0;8833;0;0;0;0;4;0;9317;0;0;0;0;5;0;34439;2;0;0;0;0;0;6;0;26195;2;0;0;0;0;0;7;0;25379;0;0;0;0;8;0;24786;0;0;0;0;9;0;13295;0;0;0;0
02.01.20;21:05:00;1;960;9984;0;2;0;13032;0;0;0;0;3;0;8833;0;0;0;0;4;0;9317;0;0;0;0;5;0;34439;2;0;0;0;0;0;6;0;26195;2;0;0;0;0;0;7;0;25379;0;0;0;0;8;0;24786;0;0;0;0;9;0;13295;0;0;0;0
02.01.20;21:00:00;1;841;9909;0;2;0;13032;0;0;0;0;3;0;8833;0;0;0;0;4;0;9317;0;0;0;0;5;0;34439;2;0;0;0;0;0;6;0;26195;2;0;0;0;0;0;7;0;25379;0;0;0;0;8;0;24786;0;0;0;0;9;0;13295;0;0;0;0
02.01.20;20:55:00;1;818;9839;0;2;0;13032;0;0;0;0;3;0;8833;0;0;0;0;4;0;9317;0;0;0;0;5;0;34439;2;0;0;0;0;0;6;0;26195;2;0;0;0;0;0;7;0;25379;0;0;0;0;8;0;24786;0;0;0;0;9;0;13295;0;0;0;0
02.01.20;20:50:00;1;755;9771;0;2;0;13032;0;0;0;0;3;0;8833;0;0;0;0;4;0;9317;0;0;0;0;5;0;34439;2;0;0;0;0;0;6;0;26195;2;0;0;0;0;0;7;0;25379;0;0;0;0;8;0;24786;0;0;0;0;9;0;13295;0;0;0;0
02.01.20;20:45:00;1;730;9686;0;2;0;13032;0;0;0;0;3;0;8833;0;0;0;0;4;0;9317;0;0;0;0;5;0;34439;2;0;0;0;0;0;6;0;26195;2;0;0;0;0;0;7;0;25379;0;0;0;0;8;0;24786;0;0;0;0;9;0;13295;0;0;0;0
02.01.20;20:40:00;1;729;9625;0;2;0;13032;0;0;0;0;3;0;8833;0;0;0;0;4;0;9317;0;0;0;0;5;0;34439;2;0;0;0;0;0;6;0;26195;2;0;0;0;0;0;7;0;25379;0;0;0;0;8;0;24786;0;0;0;0;9;0;13295;0;0;0;0
02.01.20;20:35:00;1;724;9564;0;2;0;13032;0;0;0;0;3;0;8833;0;0;0;0;4;0;9317;0;0;0;0;5;0;34439;2;0;0;0;0;0;6;0;26195;2;0;0;0;0;0;7;0;25379;0;0;0;0;8;0;24786;0;0;0;0;9;0;13295;0;0;0;0
02.01.20;20:30:00;1;1317;9503;0;2;0;13032;0;0;0;0;3;0;8833;0;0;0;0;4;0;9317;0;0;0;0;5;0;34439;2;0;0;0;0;0;6;0;26195;2;0;0;0;0;0;7;0;25379;0;0;0;0;8;0;24786;0;0;0;0;9;0;13295;0;0;0;0
02.01.20;20:25:00;1;726;9423;0;2;0;13032;0;0;0;0;3;0;8833;0;0;0;0;4;0;9317;0;0;0;0;5;0;34439;2;0;0;0;0;0;6;0;26195;2;0;0;0;0;0;7;0;25379;0;0;0;0;8;0;24786;0;0;0;0;9;0;13295;0;0;0;0
02.01.20;20:20:00;1;776;9362;0;2;0;13032;0;0;0;0;3;0;8833;0;0;0;0;4;0;9317;0;0;0;0;5;0;34439;2;0;0;0;0;0;6;0;26195;2;0;0;0;0;0;7;0;25379;0;0;0;0;8;0;24786;0;0;0;0;9;0;13295;0;0;0;0
02.01.20;20:15:00;1;777;9281;0;2;0;13032;0;0;0;0;3;0;8833;0;0;0;0;4;0;9317;0;0;0;0;5;0;34439;2;0;0;0;0;0;6;0;26195;2;0;0;0;0;0;7;0;25379;0;0;0;0;8;0;24786;0;0;0;0;9;0;13295;0;0;0;0
02.01.20;20:10:00;1;981;9206;0;2;0;13032;0;0;0;0;3;0;8833;0;0;0;0;4;0;9317;0;0;0;0;5;0;34439;2;0;0;0;0;0;6;0;26195;2;0;0;0;0;0;7;0;25379;0;0;0;0;8;0;24786;0;0;0;0;9;0;13295;0;0;0;0
02.01.20;20:05:00;1;888;9111;0;2;0;13032;0;0;0;0;3;0;8833;0;0;0;0;4;0;9317;0;0;0;0;5;0;34439;2;0;0;0;0;0;6;0;26195;2;0;0;0;0;0;7;0;25379;0;0;0;0;8;0;24786;0;0;0;0;9;0;13295;0;0;0;0
02.01.20;20:00:00;1;708;9016;0;2;0;13032;0;0;0;0;3;0;8833;0;0;0;0;4;0;9317;0;0;0;0;5;0;34439;2;0;0;0;0;0;6;0;26195;2;0;0;0;0;0;7;0;25379;0;0;0;0;8;0;24786;0;0;0;0;9;0;13295;0;0;0;0
02.01.20;19:55:00;1;933;8958;0;2;0;13032;0;0;0;0;3;0;8833;0;0;0;0;4;0;9317;0;0;0;0;5;0;34439;2;0;0;0;0;0;6;0;26195;2;0;0;0;0;0;7;0;25379;0;0;0;0;8;0;24786;0;0;0;0;9;0;13295;0;0;0;0
02.01.20;19:50:00;1;825;8877;0;2;0;13032;0;0;0;0;3;0;8833;0;0;0;0;4;0;9317;0;0;0;0;5;0;34439;2;0;0;0;0;0;6;0;26195;2;0;0;0;0;0;7;0;25379;0;0;0;0;8;0;24786;0;0;0;0;9;0;13295;0;0;0;0
02.01.20;19:45:00;1;765;8803;0;2;0;13032;0;0;0;0;3;0;8833;0;0;0;0;4;0;9317;0;0;0;0;5;0;34439;2;0;0;0;0;0;6;0;26195;2;0;0;0;0;0;7;0;25379;0;0;0;0;8;0;24786;0;0;0;0;9;0;13295;0;0;0;0
02.01.20;19:40:00;1;1011;8731;0;2;0;13032;0;0;0;0;3;0;8833;0;0;0;0;4;0;9317;0;0;0;0;5;0;34439;2;0;0;0;0;0;6;0;26195;2;0;0;0;0;0;7;0;25379;0;0;0;0;8;0;24786;0;0;0;0;9;0;13295;0;0;0;0
02.01.20;19:35:00;1;652;8664;0;2;0;13032;0;0;0;0;3;0;8833;0;0;0;0;4;0;9317;0;0;0;0;5;0;34439;2;0;0;0;0;0;6;0;26195;2;0;0;0;0;0;7;0;25379;0;0;0;0;8;0;24786;0;0;0;0;9;0;13295;0;0;0;0
02.01.20;19:30:00;1;633;8611;0;2;0;13032;0;0;0;0;3;0;8833;0;0;0;0;4;0;9317;0;0;0;0;5;0;34439;2;0;0;0;0;0;6;0;26195;2;0;0;0;0;0;7;0;25379;0;0;0;0;8;0;24786;0;0;0;0;9;0;13295;0;0;0;0
02.01.20;19:25:00;1;636;8558;0;2;0;13032;0;0;0;0;3;0;8833;0;0;0;0;4;0;9317;0;0;0;0;5;0;34439;2;0;0;0;0;0;6;0;26195;2;0;0;0;0;0;7;0;25379;0;0;0;0;8;0;24786;0;0;0;0;9;0;13295;0;0;0;0
02.01.20;19:20:00;1;609;8506;0;2;0;13032;0;0;0;0;3;0;8833;0;0;0;0;4;0;9317;0;0;0;0;5;0;34439;2;0;0;0;0;0;6;0;26195;2;0;0;0;0;0;7;0;25379;0;0;0;0;8;0;24786;0;0;0;0;9;0;13295;0;0;0;0
02.01.20;19:15:00;1;627;8434;0;2;0;13032;0;0;0;0;3;0;8833;0;0;0;0;4;0;9317;0;0;0;0;5;0;34439;2;0;0;0;0;0;6;0;26195;2;0;0;0;0;0;7;0;25379;0;0;0;0;8;0;24786;0;0;0;0;9;0;13295;0;0;0;0
02.01.20;19:10:00;1;644;8381;0;2;0;13032;0;0;0;0;3;0;8833;0;0;0;0;4;0;9317;0;0;0;0;5;0;34439;2;0;0;0;0;0;6;0;26195;2;0;0;0;0;0;7;0;25379;0;0;0;0;8;0;24786;0;0;0;0;9;0;13295;0;0;0;0
02.01.20;19:05:00;1;650;8327;0;2;0;13032;0;0;0;0;3;0;8833;0;0;0;0;4;0;9317;0;0;0;0;5;0;34439;2;0;0;0;0;0;6;0;26195;2;0;0;0;0;0;7;0;25379;0;0;0;0;8;0;24786;0;0;0;0;9;0;13295;0;0;0;0
02.01.20;19:00:00;1;643;8273;0;2;0;13032;0;0;0;0;3;0;8833;0;0;0;0;4;0;9317;0;0;0;0;5;0;34439;2;0;0;0;0;0;6;0;26195;2;0;0;0;0;0;7;0;25379;0;0;0;0;8;0;24786;0;0;0;0;9;0;13295;0;0;0;0
02.01.20;18:55:00;1;652;8219;0;2;0;13032;0;0;0;0;3;0;8833;0;0;0;0;4;0;9317;0;0;0;0;5;0;34439;2;0;0;0;0;0;6;0;26195;2;0;0;0;0;0;7;0;25379;0;0;0;0;8;0;24786;0;0;0;0;9;0;13295;0;0;0;0
02.01.20;18:50:00;1;657;8144;0;2;0;13032;0;0;0;0;3;0;8833;0;0;0;0;4;0;9317;0;0;0;0;5;0;34439;2;0;0;0;0;0;6;0;26195;2;0;0;0;0;0;7;0;25379;0;0;0;0;8;0;24786;0;0;0;0;9;0;13295;0;0;0;0
02.01.20;18:45:00;1;699;8089;0;2;0;13032;0;0;0;0;3;0;8833;0;0;0;0;4;0;9317;0;0;0;0;5;0;34439;2;0;0;0;0;0;6;0;26195;2;0;0;0;0;0;7;0;25379;0;0;0;0;8;0;24786;0;0;0;0;9;0;13295;0;0;0;0
02.01.20;18:40:00;1;655;8031;0;2;0;13032;0;0;0;0;3;0;8833;0;0;0;0;4;0;9317;0;0;0;0;5;0;34439;2;0;0;0;0;0;6;0;26195;2;0;0;0;0;0;7;0;25379;0;0;0;0;8;0;24786;0;0;0;0;9;0;13295;0;0;0;0
02.01.20;18:35:00;1;648;7976;0;2;0;13032;0;0;0;0;3;0;8833;0;0;0;0;4;0;9317;0;0;0;0;5;0;34439;2;0;0;0;0;0;6;0;26195;2;0;0;0;0;0;7;0;25379;0;0;0;0;8;0;24786;0;0;0;0;9;0;13295;0;0;0;0
02.01.20;18:30:00;1;1229;7922;0;2;0;13032;0;0;0;0;3;0;8833;0;0;0;0;4;0;9317;0;0;0;0;5;0;34439;2;0;0;0;0;0;6;0;26195;2;0;0;0;0;0;7;0;25379;0;0;0;0;8;0;24786;0;0;0;0;9;0;13295;0;0;0;0
02.01.20;18:25:00;1;613;7848;0;2;0;13032;0;0;0;0;3;0;8833;0;0;0;0;4;0;9317;0;0;0;0;5;0;34439;2;0;0;0;0;0;6;0;26195;2;0;0;0;0;0;7;0;25379;0;0;0;0;8;0;24786;0;0;0;0;9;0;13295;0;0;0;0
02.01.20;18:20:00;1;621;7797;0;2;0;13032;0;0;0;0;3;0;8833;0;0;0;0;4;0;9317;0;0;0;0;5;0;34439;2;0;0;0;0;0;6;0;26195;2;0;0;0;0;0;7;0;25379;0;0;0;0;8;0;24786;0;0;0;0;9;0;13295;0;0;0;0
02.01.20;18:15:00;1;603;7746;0;2;0;13032;0;0;0;0;3;0;8833;0;0;0;0;4;0;9317;0;0;0;0;5;0;34439;2;0;0;0;0;0;6;0;26195;2;0;0;0;0;0;7;0;25379;0;0;0;0;8;0;24786;0;0;0;0;9;0;13295;0;0;0;0
02.01.20;18:10:00;1;601;7695;0;2;0;13032;0;0;0;0;3;0;8833;0;0;0;0;4;0;9317;0;0;0;0;5;0;34439;2;0;0;0;0;0;6;0;26195;2;0;0;0;0;0;7;0;25379;0;0;0;0;8;0;24786;0;0;0;0;9;0;13295;0;0;0;0
02.01.20;18:05:00;1;608;7645;0;2;0;13032;0;0;0;0;3;0;8833;0;0;0;0;4;0;9317;0;0;0;0;5;0;34439;2;0;0;0;0;0;6;0;26195;2;0;0;0;0;0;7;0;25379;0;0;0;0;8;0;24786;0;0;0;0;9;0;13295;0;0;0;0
02.01.20;18:00:00;1;639;7573;0;2;0;13032;0;0;0;0;3;0;8833;0;0;0;0;4;0;9317;0;0;0;0;5;0;34439;2;0;0;0;0;0;6;0;26195;2;0;0;0;0;0;7;0;25379;0;0;0;0;8;0;24786;0;0;0;0;9;0;13295;0;0;0;0
02.01.20;17:55:00;1;777;7519;0;2;0;13032;0;0;0;0;3;0;8833;0;0;0;0;4;0;9317;0;0;0;0;5;0;34439;2;0;0;0;0;0;6;0;26195;2;0;0;0;0;0;7;0;25379;0;0;0;0;8;0;24786;0;0;0;0;9;0;13295;0;0;0;0
02.01.20;17:50:00;1;938;7451;0;2;0;13032;0;0;0;0;3;0;8833;0;0;0;0;4;0;9317;0;0;0;0;5;0;34439;2;0;0;0;0;0;6;0;26195;2;0;0;0;0;0;7;0;25379;0;0;0;0;8;0;24786;0;0;0;0;9;0;13295;0;0;0;0
02.01.20;17:45:00;1;709;7374;0;2;0;13032;0;0;0;0;3;0;8833;0;0;0;0;4;0;9317;0;0;0;0;5;0;34439;2;0;0;0;0;0;6;0;26195;2;0;0;0;0;0;7;0;25379;0;0;0;0;8;0;24786;0;0;0;0;9;0;13295;0;0;0;0
02.01.20;17:40:00;1;447;7315;0;2;0;13032;0;0;0;0;3;0;8833;0;0;0;0;4;0;9317;0;0;0;0;5;0;34439;2;0;0;0;0;0;6;0;26195;2;0;0;0;0;0;7;0;25379;0;0;0;0;8;0;24786;0;0;0;0;9;0;13295;0;0;0;0
02.01.20;17:35:00;1;572;7279;0;2;0;13032;0;0;0;0;3;0;8833;0;0;0;0;4;0;9317;0;0;0;0;5;0;34439;2;0;0;0;0;0;6;0;26195;2;0;0;0;0;0;7;0;25379;0;0;0;0;8;0;24786;0;0;0;0;9;0;13295;0;0;0;0
02.01.20;17:30:00;1;403;7219;0;2;0;13032;0;0;0;0;3;0;8833;0;0;0;0;4;0;9317;0;0;0;0;5;0;34439;2;0;0;0;0;0;6;0;26195;2;0;0;0;0;0;7;0;25379;0;0;0;0;8;0;24786;0;0;0;0;9;0;13295;0;0;0;0
02.01.20;17:25:00;1;404;7185;0;2;0;13032;0;0;0;0;3;0;8833;0;0;0;0;4;0;9317;0;0;0;0;5;0;34439;2;0;0;0;0;0;6;0;26195;2;0;0;0;0;0;7;0;25379;0;0;0;0;8;0;24786;0;0;0;0;9;0;13295;0;0;0;0
02.01.20;17:20:00;1;402;7151;0;2;0;13032;0;0;0;0;3;0;8833;0;0;0;0;4;0;9317;0;0;0;0;5;0;34439;2;0;0;0;0;0;6;0;26195;2;0;0;0;0;0;7;0;25379;0;0;0;0;8;0;24786;0;0;0;0;9;0;13295;0;0;0;0
02.01.20;17:15:00;1;417;7118;0;2;0;13032;0;0;0;0;3;0;8833;0;0;0;0;4;0;9317;0;0;0;0;5;0;34439;2;0;0;0;0;0;6;0;26195;2;0;0;0;0;0;7;0;25379;0;0;0;0;8;0;24786;0;0;0;0;9;0;13295;0;0;0;0
02.01.20;17:10:00;1;1105;7082;0;2;0;13032;0;0;0;0;3;0;8833;0;0;0;0;4;0;9317;0;0;0;0;5;0;34439;2;0;0;0;0;0;6;0;26195;2;0;0;0;0;0;7;0;25379;0;0;0;0;8;0;24786;0;0;0;0;9;0;13295;0;0;0;0
02.01.20;17:05:00;1;516;7019;0;2;0;13032;0;0;0;0;3;0;8833;0;0;0;0;4;0;9317;0;0;0;0;5;0;34439;2;0;0;0;0;0;6;0;26195;2;0;0;0;0;0;7;0;25379;0;0;0;0;8;0;24786;0;0;0;0;9;0;13295;0;0;0;0
02.01.20;17:00:00;1;669;6975;0;2;0;13032;0;0;0;0;3;0;8833;0;0;0;0;4;0;9317;0;0;0;0;5;0;34439;2;0;0;0;0;0;6;0;26195;2;0;0;0;0;0;7;0;25379;0;0;0;0;8;0;24786;0;0;0;0;9;0;13295;0;0;0;0
02.01.20;16:55:00;1;831;6916;0;2;0;13032;0;0;0;0;3;0;8833;0;0;0;0;4;0;9317;0;0;0;0;5;0;34439;2;0;0;0;0;0;6;0;26195;2;0;0;0;0;0;7;0;25379;0;0;0;0;8;0;24786;0;0;0;0;9;0;13295;0;0;0;0
02.01.20;16:50:00;1;2427;6847;0;2;0;13032;0;0;0;0;3;0;8833;0;0;0;0;4;0;9317;0;0;0;0;5;0;34439;2;0;0;0;0;0;6;0;26195;2;0;0;0;0;0;7;0;25379;0;0;0;0;8;0;24786;0;0;0;0;9;0;13295;0;0;0;0
02.01.20;16:45:00;1;2464;6618;0;2;0;13032;0;0;0;0;3;0;8833;0;0;0;0;4;0;9317;0;0;0;0;5;0;34439;2;0;0;0;0;0;6;0;26195;2;0;0;0;0;0;7;0;25379;0;0;0;0;8;0;24786;0;0;0;0;9;0;13295;0;0;0;0
02.01.20;16:40:00;1;1582;6419;0;2;0;13032;0;0;149;7;3;0;8833;6;0;283;15;4;0;9317;0;0;0;0;5;0;34439;2;0;0;0;0;0;6;0;26195;2;0;0;0;0;0;7;0;25379;0;0;0;0;8;0;24786;0;0;0;0;9;0;13295;0;0;0;0
02.01.20;16:35:00;1;1982;6294;0;2;0;13032;6;0;296;13;3;0;8833;6;0;331;15;4;0;9317;0;0;22;3;5;0;34439;2;0;0;0;0;0;6;0;26195;2;0;0;0;0;0;7;0;25379;0;0;0;0;8;0;24786;0;0;0;0;9;0;13295;0;0;0;0
02.01.20;16:30:00;1;2155;6160;0;2;0;13032;6;0;332;13;3;0;8833;6;0;403;16;4;0;9317;2;0;88;9;5;0;34439;2;0;3;217;214;18;6;0;26195;2;2;1;77;153;10;7;0;25379;0;0;0;0;8;0;24786;0;0;0;0;9;0;13295;0;0;0;0
02.01.20;16:25:00;1;2322;5980;0;2;0;13032;6;0;356;13;3;0;8833;6;1;425;16;4;0;9317;1;0;114;9;5;0;34439;26;0;0;364;362;22;6;0;26195;23;7;4;240;487;20;7;0;25379;0;0;157;10;8;0;24786;0;0;158;9;9;0;13295;0;0;223;8
02.01.20;16:20:00;1;3111;5759;0;2;0;13032;6;0;376;13;3;0;8833;6;0;458;16;4;0;9317;1;0;146;9;5;0;34439;23;0;0;406;464;23;6;0;26195;23;6;4;181;543;20;7;0;25379;0;0;240;13;8;0;24786;6;0;300;16;9;0;13295;6;0;253;9
02.01.20;16:15:00;1;1999;5479;0;2;0;13032;6;0;389;14;3;0;8833;3;2;454;16;4;0;9317;1;0;171;10;5;0;34439;26;0;0;422;627;23;6;0;26195;23;8;4;220;566;21;7;0;25379;6;0;353;18;8;0;24786;6;0;358;17;9;0;13295;6;0;380;12
02.01.20;16:10:00;1;606;5350;0;2;0;13032;6;0;404;14;3;0;8833;6;3;491;16;4;0;9317;1;0;194;10;5;9;34439;23;0;2;423;666;24;6;0;26195;23;7;1;312;587;21;7;0;25379;6;1;405;18;8;0;24786;6;0;424;17;9;0;13295;6;0;447;12
02.01.20;16:05:00;1;521;5299;0;2;0;13032;4;5;407;15;3;2;8833;6;5;508;16;4;0;9317;3;0;216;11;5;74;34438;4;8;11;391;619;25;6;0;26195;8;2;6;529;602;22;7;2;25379;3;4;414;18;8;0;24786;3;2;439;18;9;0;13295;4;1;475;13
02.01.20;16:00:00;1;515;5256;0;2;7;13031;3;21;388;15;3;3;8833;6;8;488;17;4;0;9317;3;0;224;11;5;81;34431;4;11;14;391;619;25;6;42;26195;1;21;34;491;481;23;7;2;25379;6;4;462;19;8;2;24786;6;4;464;18;9;1;13295;3;5;488;13
02.01.20;15:55:00;1;488;5214;0;2;16;13031;6;28;402;16;3;0;8832;6;6;522;17;4;3;9317;3;3;199;12;5;118;34425;4;34;29;391;619;25;6;76;26192;4;28;35;465;457;24;7;1;25378;6;5;457;20;8;2;24786;6;5;472;19;9;2;13295;6;4;496;14
02.01.20;15:50:00;1;948;5173;0;2;50;13029;4;81;364;17;3;0;8832;6;0;564;18;4;16;9317;3;17;199;12;5;164;34415;4;58;45;391;619;26;6;107;26185;4;54;67;465;457;24;7;1;25378;0;9;383;16;8;2;24786;6;10;483;20;9;2;13295;6;6;534;14
02.01.20;15:45:00;1;484;5111;0;2;73;13025;4;106;380;18;3;4;8832;4;11;544;18;4;32;9315;3;33;197;13;5;199;34401;4;82;72;391;619;26;6;131;26176;4;52;61;465;457;24;7;55;25378;6;69;275;13;8;79;24785;6;109;466;21;9;9;13295;6;14;557;15
02.01.20;15:40:00;1;456;5070;0;2;357;13019;4;401;381;19;3;188;8832;4;225;451;19;4;204;9313;3;213;237;13;5;557;34383;4;261;225;404;661;26;6;404;26164;4;198;218;580;559;24;7;501;25373;4;543;438;22;8;358;24779;4;397;370;18;9;137;13294;6;169;556;16
02.01.20;15:35:00;1;293;5034;0;2;778;12990;4;837;405;20;3;422;8817;4;471;447;20;4;360;9296;5;374;249;13;5;1003;34335;4;497;426;433;714;26;6;794;26128;4;390;415;619;597;24;7;1121;25334;4;1182;480;23;8;761;24749;4;818;425;22;9;218;13283;4;256;559;16
02.01.20;15:30:00;1;361;5009;0;2;967;12926;4;1034;401;21;3;525;8782;4;576;449;21;4;383;9266;5;399;248;13;5;1286;34248;4;628;568;421;710;27;6;1034;26059;4;521;531;615;592;25;7;1449;25241;4;1527;495;23;8;1056;24685;4;1111;414;22;9;194;13265;4;226;446;17
02.01.20;15:25:00;1;350;4978;0;2;1117;12846;4;1188;405;22;3;607;8738;4;663;452;21;4;405;9234;5;422;241;14;5;1495;34139;4;736;664;419;702;27;6;1190;25971;4;574;578;615;594;25;7;1755;25120;4;1855;499;24;8;1385;24597;4;1459;444;23;9;172;13245;0;196;284;14
02.01.20;15:20:00;1;823;4949;0;2;1273;12752;4;1349;407;23;3;685;8687;4;743;457;22;4;428;9201;5;446;250;14;5;1756;34013;4;880;775;421;708;27;6;1376;25871;4;730;730;617;595;25;7;1957;24974;4;2058;497;24;8;1629;24483;4;1712;475;23;9;253;13231;4;280;282;15
02.01.20;15:15:00;1;330;4898;0;2;1488;12647;4;1578;422;24;3;776;8630;4;840;474;22;4;459;9165;5;478;250;14;5;2026;33866;4;1046;875;432;715;28;6;1551;25756;4;798;793;619;590;25;7;2176;24813;4;2284;490;24;8;1983;24349;4;2084;475;24;9;493;13207;4;531;354;19
02.01.20;15:10:00;1;301;4871;0;2;1643;12523;4;1742;421;25;3;916;8565;4;988;503;23;4;476;9127;5;495;243;14;5;2278;33694;4;1197;986;436;713;28;6;1751;25624;4;889;891;618;591;25;7;2394;24633;4;2514;494;25;8;2253;24187;4;2362;477;24;9;753;13166;4;800;381;20
02.01.20;15:05:00;1;354;4845;0;2;1780;12386;4;1882;422;25;3;1039;8489;4;1115;523;23;4;493;9087;5;513;239;15;5;2493;33503;4;1325;1084;433;711;28;6;1928;25476;4;989;986;618;594;25;7;2590;24430;4;2711;486;25;8;2468;23997;4;2585;484;25;9;1033;13103;4;1093;428;21
02.01.20;15:00:00;1;360;4816;0;2;1908;12238;4;2018;419;26;3;1184;8402;4;1270;531;24;4;518;9046;5;539;237;15;5;2740;33293;4;1458;1196;430;699;28;6;2110;25314;4;1089;1075;615;592;26;7;2787;24215;4;2925;488;26;8;2684;23790;4;2818;484;25;9;1241;13016;4;1315;459;22
02.01.20;14:55:00;1;359;4786;0;2;2013;12079;4;2128;425;26;3;1287;8304;4;1377;536;24;4;531;9003;5;553;226;15;5;2946;33063;4;1576;1288;434;696;28;6;2272;25137;4;1169;1159;614;594;26;7;2949;23983;4;3081;490;26;8;2856;23569;4;2996;480;26;9;1387;12916;4;1471;476;23
02.01.20;14:50:00;1;360;4755;0;2;2097;11912;4;2215;420;27;3;1326;8197;4;1438;534;24;4;555;8959;5;578;236;15;5;3126;32817;4;1680;1369;431;698;29;6;2409;24947;4;1234;1216;613;589;26;7;3033;23738;4;3179;485;26;8;2990;23330;4;3139;488;26;9;1483;12799;4;1569;492;23
02.01.20;14:45:00;1;361;4725;0;2;2192;11737;4;2315;422;27;3;1413;8087;4;1509;533;25;4;603;8913;5;628;235;16;5;3331;32556;4;1812;1465;427;697;29;6;2573;24745;4;1338;1320;613;593;26;7;3199;23485;4;3351;480;27;8;3158;23079;4;3307;484;26;9;1592;12675;4;1685;498;24
02.01.20;14:40:00;1;402;4694;0;2;2309;11555;4;2432;416;28;3;1482;7969;4;1581;536;25;4;634;8862;5;660;234;16;5;3572;32276;4;1929;1570;429;696;29;6;2754;24529;4;1413;1389;610;590;26;7;3359;23218;4;3516;478;27;8;3308;22818;4;3467;481;27;9;1742;12545;4;1845;523;25
02.01.20;14:35:00;1;406;4639;0;2;2372;11362;4;2501;416;28;3;1530;7846;4;1630;533;25;4;656;8809;5;683;233;16;5;3743;31977;4;2022;1647;427;699;29;6;2879;24298;4;1487;1451;609;588;26;7;3475;22938;4;3646;479;27;8;3429;22540;4;3592;475;27;9;1830;12396;4;1934;518;25
02.01.20;14:30:00;1;348;4605;0;2;2427;11164;4;2561;416;28;3;1562;7718;4;1663;529;25;4;698;8755;5;727;227;17;5;3908;31664;4;2110;1723;428;694;29;6;3011;24057;4;1563;1534;609;587;26;7;3561;22650;4;3733;474;28;8;3522;22255;4;3690;480;27;9;1861;12246;4;1972;516;26
02.01.20;14:25:00;1;297;4573;0;2;2485;10962;4;2622;415;28;3;1601;7588;4;1701;536;25;4;722;8697;5;753;229;17;5;4072;31337;4;2208;1794;429;701;29;6;3140;23805;4;1631;1590;606;590;26;7;3653;22352;4;3831;481;28;8;3613;21961;4;3792;476;27;9;1937;12089;4;2055;524;26
02.01.20;14:20:00;1;470;4534;0;2;2518;10755;4;2656;414;29;3;1626;7455;4;1731;530;25;4;736;8637;5;766;221;17;5;4199;30997;4;2289;1849;430;688;29;6;3238;23543;4;1668;1634;607;589;26;7;3744;22051;4;3922;473;28;8;3701;21662;4;3882;477;28;9;2012;11930;4;2130;526;26
02.01.20;14:15:00;1;505;4495;0;2;2604;10545;4;2742;412;29;3;1683;7319;4;1791;533;25;4;755;8575;5;786;230;18;5;4397;30647;4;2400;1949;427;688;30;6;3392;23272;4;1744;1697;607;588;26;7;3844;21739;4;4037;477;28;8;3797;21354;4;3979;478;28;9;2080;11761;4;2198;530;27
02.01.20;14:10:00;1;555;4449;0;2;2626;10328;4;2767;411;29;3;1699;7179;4;1806;533;26;4;820;8513;5;854;217;18;5;4520;30278;4;2449;2000;425;689;30;6;3487;22988;4;1822;1779;604;587;26;7;3916;21421;4;4112;477;29;8;3879;21041;4;4067;481;28;9;2129;11590;4;2252;523;27
02.01.20;14:05:00;1;380;4406;0;2;2680;10109;4;2826;419;29;3;1735;7037;4;1844;533;26;4;882;8444;5;919;214;18;5;4676;29900;4;2554;2069;424;687;30;6;3598;22698;4;1859;1816;601;584;26;7;3989;21089;4;4193;466;29;8;3959;20714;4;4148;473;28;9;2170;11412;4;2300;531;27